Weather History for Crestview, FL

Change the Weather History Date:

Tuesday, December 10, 2013

  Actual Average Record
Temperature  
Mean Temperature 54 °F -  
Max Temperature 68 °F - - ()
Min Temperature 37 °F - - ()
Degree Days  
Heating Degree Days 12    
Growing Degree Days 4 (Base 50)    
Moisture  
Dew Point 59 °F    
Average Humidity 99    
Maximum Humidity 100    
Minimum Humidity 87    
Precipitation  
Precipitation 0.03 in - - ()
Sea Level Pressure  
Sea Level Pressure 30.11 in    
Wind  
Wind Speed 5 mph (WSW)    
Max Wind Speed 25 mph    
Max Gust Speed 31 mph    
Visibility 5 miles    
Events Fog , Rain    
T = Trace of Precipitation, MM = Missing Value Source: NWS Daily Summary

Daily Weather History Graph

Daily Weather History Graph

Search for Another Location

Airport:

Trip Planner

Search our weather history database for the weather conditions in past years. The results will help you decide how hot, cold, wet, or windy it might be!

Date:

Astronomy

Dec. 10, 2013 Rise Set
Actual Time 6:32 AM CST 4:45 PM CST
Civil Twilight 6:06 AM CST 5:11 PM CST
Nautical Twilight 5:36 AM CST 5:41 PM CST
Astronomical Twilight 5:06 AM CST 6:11 PM CST
Moon 12:25 PM CST (12/10) 12:13 AM CST (12/10)
Length of Visible Light 11h 05m
Length of Day
10h 12m
Waxing Gibbous, 62% of the Moon is Illuminated
Dec 10
Waxing Gibbous
Dec 17
Full
Dec 25
Last Quarter
Jan 1
New
Jan 7
First Quarter

Hourly Weather History & Observations

Time (CST) Temp. Windchill Dew Point Humidity Pressure Visibility Wind Dir Wind Speed Gust Speed Precip Events Conditions
12:03 AM 64.4 °F - 64.4 °F 100% 30.05 in 0.5 mi Calm Calm - N/A Fog Fog
12:08 AM 64.4 °F - 64.4 °F 100% 30.05 in 0.5 mi Calm Calm - N/A Fog Fog
12:13 AM 64.4 °F - 64.4 °F 100% 30.05 in 0.5 mi Calm Calm - N/A Fog Fog
12:18 AM 64.4 °F - 64.4 °F 100% 30.05 in 1.0 mi Calm Calm - N/A   Mist
12:23 AM 64.4 °F - 64.4 °F 100% 30.05 in 1.2 mi WNW 2.3 mph - N/A   Mostly Cloudy
12:28 AM 64.4 °F - 64.4 °F 100% 30.05 in 1.5 mi West 2.3 mph - N/A   Overcast
12:33 AM 64.4 °F - 64.4 °F 100% 30.05 in 3.0 mi Calm Calm - N/A   Overcast
12:41 AM 64.4 °F - 64.4 °F 100% 30.05 in 8.0 mi West 2.3 mph - N/A   Overcast
12:56 AM 64.4 °F - 64.4 °F 100% 30.05 in 6.0 mi Calm Calm - N/A   Scattered Clouds
12:58 AM 64.4 °F - 64.4 °F 100% 30.06 in 4.0 mi Calm Calm - N/A   Scattered Clouds
1:03 AM 64.4 °F - 64.4 °F 100% 30.04 in 1.8 mi SSE 2.3 mph - N/A   Partly Cloudy
1:13 AM 64.4 °F - 64.4 °F 100% 30.04 in 1.2 mi South 3.5 mph - N/A   Clear
1:18 AM 64.4 °F - 64.4 °F 100% 30.04 in 0.8 mi South 4.6 mph - N/A   Clear
1:21 AM 64.4 °F - 64.4 °F 100% 30.04 in 0.5 mi South 4.6 mph - N/A Fog Fog
1:26 AM 64.4 °F - 64.4 °F 100% 30.04 in 0.8 mi South 3.5 mph - N/A   Mist
1:31 AM 64.4 °F - 64.4 °F 100% 30.04 in 0.5 mi South 4.6 mph - N/A Fog Fog
1:46 AM 64.4 °F - 64.4 °F 100% 30.04 in 0.8 mi South 4.6 mph - N/A   Mist
1:51 AM 64.4 °F - 64.4 °F 100% 30.04 in 1.0 mi South 4.6 mph - N/A   Mist
1:56 AM 64.4 °F - 64.4 °F 100% 30.04 in 1.2 mi South 3.5 mph - N/A   Scattered Clouds
1:58 AM 64.4 °F - 64.4 °F 100% 30.05 in 1.2 mi South 3.5 mph - N/A   Scattered Clouds
2:03 AM 64.4 °F - 64.4 °F 100% 30.04 in 1.2 mi South 4.6 mph - N/A   Mostly Cloudy
2:08 AM 64.4 °F - 64.4 °F 100% 30.04 in 1.2 mi South 4.6 mph - N/A   Mostly Cloudy
2:18 AM 64.4 °F - 64.4 °F 100% 30.03 in 1.0 mi South 4.6 mph - N/A   Mist
2:23 AM 64.4 °F - 64.4 °F 100% 30.04 in 0.8 mi South 4.6 mph - N/A   Mist
2:28 AM 64.4 °F - 64.4 °F 100% 30.04 in 0.5 mi South 4.6 mph - N/A Fog Fog
2:33 AM 64.4 °F - 64.4 °F 100% 30.03 in 0.5 mi South 4.6 mph - N/A Fog Fog
2:38 AM 64.4 °F - 64.4 °F 100% 30.03 in 0.5 mi South 3.5 mph - N/A Fog Fog
2:43 AM 64.4 °F - 64.4 °F 100% 30.04 in 0.2 mi South 4.6 mph - N/A Fog Fog
2:58 AM 64.2 °F - 64.2 °F 100% 30.05 in 0.2 mi South 4.6 mph - N/A Fog Fog
3:08 AM 64.4 °F - 64.4 °F 100% 30.04 in 0.5 mi SSW 3.5 mph - N/A Fog Fog
3:18 AM 64.4 °F - 64.4 °F 100% 30.04 in 1.0 mi SW 2.3 mph - N/A   Mist
3:23 AM 66.2 °F - 66.2 °F 100% 30.04 in 1.8 mi SSW 2.3 mph - N/A   Overcast
3:28 AM 66.2 °F - 66.2 °F 100% 30.04 in 2.0 mi SSW 2.3 mph - N/A   Overcast
3:33 AM 66.2 °F - 66.2 °F 100% 30.04 in 1.8 mi SSW 3.5 mph - N/A   Overcast
3:43 AM 66.2 °F - 66.2 °F 100% 30.05 in 1.2 mi SSW 2.3 mph - N/A   Overcast
3:48 AM 66.2 °F - 66.2 °F 100% 30.05 in 1.0 mi SSW 2.3 mph - N/A   Mist
3:58 AM 66.0 °F - 66.0 °F 100% 30.06 in 1.0 mi South 3.5 mph - N/A   Mist
4:03 AM 66.2 °F - 66.2 °F 100% 30.05 in 0.8 mi South 3.5 mph - N/A   Mist
4:08 AM 66.2 °F - 66.2 °F 100% 30.05 in 1.0 mi South 3.5 mph - N/A   Mist
4:18 AM 66.2 °F - 66.2 °F 100% 30.05 in 0.8 mi South 4.6 mph - N/A   Mist
4:28 AM 66.2 °F - 66.2 °F 100% 30.05 in 0.5 mi SW 5.8 mph - N/A Fog Fog
4:53 AM 68.0 °F - 68.0 °F 100% 30.05 in 0.8 mi SW 5.8 mph - N/A   Mist
4:58 AM 67.5 °F - 67.5 °F 100% 30.06 in 1.0 mi SW 5.8 mph - N/A   Mist
5:03 AM 68.0 °F - 68.0 °F 100% 30.05 in 1.8 mi SW 5.8 mph - N/A   Overcast
5:08 AM 68.0 °F - 68.0 °F 100% 30.05 in 2.5 mi SW 8.1 mph - N/A   Overcast
5:13 AM 68.0 °F - 68.0 °F 100% 30.05 in 4.0 mi SW 6.9 mph - N/A   Overcast
5:18 AM 68.0 °F - 68.0 °F 100% 30.05 in 5.0 mi SW 8.1 mph - N/A   Overcast
5:43 AM 68.0 °F - 68.0 °F 100% 30.06 in 9.0 mi WSW 6.9 mph - N/A   Overcast
5:46 AM 68.0 °F - 68.0 °F 100% 30.07 in 9.0 mi WNW 17.3 mph 24.2 mph N/A Rain Light Rain
5:48 AM 68.0 °F - 68.0 °F 100% 30.08 in 9.0 mi NW 24.2 mph 29.9 mph N/A Rain Light Rain
5:58 AM 61.5 °F - 61.5 °F 100% 30.11 in 8.0 mi WNW 20.7 mph 31.1 mph 0.01 in Rain Light Rain
6:14 AM 55.4 °F - 55.4 °F 100% 30.13 in 10.0 mi NW 25.3 mph 31.1 mph N/A   Overcast
6:29 AM 53.6 °F - 53.6 °F 100% 30.13 in 10.0 mi NW 16.1 mph - N/A   Overcast
6:42 AM 53.6 °F - 53.6 °F 100% 30.15 in 9.0 mi NW 13.8 mph - N/A   Light Drizzle
6:48 AM 53.6 °F - 53.6 °F 100% 30.15 in 9.0 mi NW 13.8 mph - N/A   Overcast
6:57 AM 51.8 °F - 51.8 °F 100% 30.16 in 7.0 mi NW 17.3 mph 23.0 mph N/A Rain Light Rain
6:58 AM 51.8 °F - 51.8 °F 100% 30.17 in 7.0 mi NW 18.4 mph 23.0 mph 0.01 in Rain Light Rain
7:11 AM 51.8 °F - 51.8 °F 100% 30.16 in 10.0 mi NW 15.0 mph - N/A   Mostly Cloudy
7:21 AM 51.8 °F - 51.8 °F 100% 30.17 in 10.0 mi NW 15.0 mph - N/A   Overcast
7:30 AM 51.8 °F - 51.8 °F 100% 30.17 in 9.0 mi NW 15.0 mph - N/A Rain Light Rain
7:45 AM 50.0 °F - 50.0 °F 100% 30.17 in 9.0 mi NNW 16.1 mph 20.7 mph N/A   Light Drizzle
7:47 AM 50.0 °F - 50.0 °F 100% 30.18 in 10.0 mi NNW 16.1 mph 20.7 mph N/A   Mostly Cloudy
7:58 AM 50.2 °F - 50.2 °F 100% 30.19 in 10.0 mi NNW 13.8 mph 20.7 mph 0.00 in   Mostly Cloudy
8:38 AM 50.0 °F - 50.0 °F 100% 30.21 in 10.0 mi North 10.4 mph - N/A Rain Light Rain
8:55 AM 49.5 °F - 49.5 °F 100% 30.22 in 6.0 mi NNW 8.1 mph - 0.01 in Rain Light Rain
9:30 AM 50.0 °F - 50.0 °F 100% 30.25 in 10.0 mi NNW 13.8 mph - N/A   Mostly Cloudy
9:59 AM 48.2 °F - 48.2 °F 100% 30.28 in 10.0 mi NNW 19.6 mph 28.8 mph 0.00 in   Overcast
10:55 AM 45.7 °F 38.0 °F 45.7 °F 100% 30.29 in 10.0 mi North 19.6 mph 23.0 mph N/A   Overcast
11:40 AM 44.6 °F 36.9 °F 44.6 °F 100% 30.26 in 10.0 mi North 18.4 mph 25.3 mph N/A   Overcast
11:55 AM 44.6 °F 36.6 °F 44.6 °F 100% 30.26 in 10.0 mi NNW 19.6 mph 25.3 mph N/A   Mostly Cloudy
12:42 PM 46.4 °F 40.7 °F 46.4 °F 100% 30.25 in 10.0 mi North 12.7 mph 29.9 mph N/A   Mostly Cloudy
12:55 PM 46.9 °F - 46.0 °F 97% 30.25 in 10.0 mi North 16.1 mph 21.9 mph N/A   Mostly Cloudy
1:55 PM 49.5 °F - 46.8 °F 90% 30.23 in 10.0 mi North 16.1 mph 25.3 mph N/A   Mostly Cloudy
2:57 PM 50.7 °F - 47.1 °F 87% 30.22 in 10.0 mi North 13.8 mph - N/A   Mostly Cloudy
3:55 PM 49.8 °F - 46.4 °F 88% 30.24 in 10.0 mi North 12.7 mph 21.9 mph N/A   Scattered Clouds
4:55 PM 46.9 °F - 44.8 °F 92% 30.27 in 10.0 mi North 9.2 mph - N/A   Scattered Clouds
5:55 PM 44.2 °F 40.3 °F 43.7 °F 98% 30.28 in 10.0 mi North 6.9 mph - N/A   Scattered Clouds
6:55 PM 43.3 °F 38.6 °F 42.6 °F 97% 30.31 in 10.0 mi North 8.1 mph - N/A   Scattered Clouds
7:55 PM 42.3 °F 36.8 °F 41.7 °F 98% 30.33 in 10.0 mi North 9.2 mph - N/A   Clear
10:55 PM 39.0 °F 34.8 °F 38.1 °F 97% 30.34 in 10.0 mi North 5.8 mph - N/A   Partly Cloudy
11:55 PM 37.2 °F 33.6 °F 36.1 °F 96% 30.32 in 10.0 mi North 4.6 mph - N/A   Scattered Clouds